Regional Weather Roundup
Issued by NWS

Home | Current Version | Previous Version | Text Only | Print | Product List | Glossary On
Versions: 1 2 3 4 5 6 7 8 9 10 11 12 13 14 15 16 17 18 19 20 21 22 23 24 25 26 27
000
ASUS46 KSEW 010310
RWRWA

WASHINGTON REGIONAL WEATHER ROUNDUP
NATIONAL WEATHER SERVICE SEATTLE WA
800 PM PDT WED AUG 31 2016

NOTE:"FAIR" INDICATES FEW OR NO CLOUDS BELOW 12,000 FEET WITH NO
SIGNIFICANT WEATHER AND/OR OBSTRUCTIONS TO VISIBILITY.

WAZ505-507>509-010400-
SEATTLE, TACOMA, EVERETT, AND VICINITY

CITY           SKY/WX    TMP DP  RH WIND       PRES   REMARKS
EVERETT        CLOUDY    64  57  78 S12       29.97S
BOEING FIELD   CLOUDY    66  59  78 S6        29.97R
RENTON         CLOUDY    66  59  78 SE6       29.97R
SEATAC AIRPORT CLOUDY    65  56  72 SW10      29.99R
JBLM-MCCHORD   CLOUDY    61  61 100 S7        29.99R
PUYALLUP       CLOUDY   N/A N/A N/A CALM      30.00R
BREMERTON      CLOUDY    63  55  77 S10       30.00S
JBLM-FT LEWIS  CLOUDY    62  61  99 SE7       29.98R
TACOMA NARROWS CLOUDY    63  56  78 S7        29.99R
$$

WAZ001-503-506-510-514-515-010400-
NORTH INTERIOR

CITY           SKY/WX    TMP DP  RH WIND       PRES   REMARKS
BELLINGHAM     CLOUDY    62  57  83 SE6       29.95R
FRIDAY HARBOR  CLOUDY    59  55  87 CALM      29.96S
EASTSOUND      CLOUDY    63  57  82 S6        29.92F
PORT ANGELES   CLOUDY    62  57  83 NW3       29.96R
EDIZ HOOK      CLOUDY    59  56  91 W7        29.95S
PORT TOWNSEND  CLOUDY    63  59  88 CALM      29.96R
NAS WHIDBEY    CLOUDY    64  58  80 SE6       29.99S
ARLINGTON      CLOUDY    64  52  63 SE12      29.97S
BURLINGTON     CLOUDY    63  61  94 SE6       29.96R FOG
$$

WAZ020-022-039-040-504-511-512-010400-
SOUTHWEST INTERIOR

CITY           SKY/WX    TMP DP  RH WIND       PRES   REMARKS
SHELTON        CLOUDY    63  56  78 SW9       29.96R
OLYMPIA        CLOUDY    62  57  83 SW6       29.99R
CHEHALIS       FAIR      64  59  82 CALM      30.00R
KELSO          CLOUDY    64  61  90 CALM      30.02R
VANCOUVER      CLOUDY    67  60  78 CALM      30.01R
SCAPPOOSE, OR  CLOUDY    66  61  84 N6        30.00S
PORTLAND, OR   MOCLDY    67  59  75 SW7       30.02R
$$

WAZ021-516-517-010400-
WASHINGTON COAST

CITY           SKY/WX    TMP DP  RH WIND       PRES   REMARKS
FORKS          CLOUDY    60  56  86 S6        29.97R
HOQUIAM        CLOUDY    62  60  93 S9        30.00S
ASTORIA, OR    CLOUDY    64  57  78 SW9       30.01R
$$

WAZ019-023-024-040-518-519-010400-
CASCADE MOUNTAINS AND COLUMBIA GORGE

CITY           SKY/WX    TMP DP  RH WIND       PRES   REMARKS
STAMPEDE PASS  CLOUDY    50  48  93 VRB3      30.03S
TROUTDALE, OR  CLOUDY    67  62  84 SW5       30.01R
THE DALLES, OR PTCLDY    70  54  56 NW25      29.93R
$$

WAZ026-027-041>044-520-521-010400-
EAST SLOPES

CITY           SKY/WX    TMP DP  RH WIND       PRES   REMARKS
OMAK           MOCLDY    77  38  24 S9        29.78R
WENATCHEE      CLOUDY    71  48  43 NW13      29.85R
ELLENSBURG     CLOUDY    66  50  56 NW22G31   29.91R
YAKIMA         CLOUDY    73  48  41 W7        29.87R
$$

WAZ028-034-035-010400-
COLUMBIA BASIN

CITY           SKY/WX    TMP DP  RH WIND       PRES   REMARKS
EPHRATA        PTCLDY    72  45  37 S8        29.82R
MOSES LAKE     CLEAR     75  45  34 S9        29.83R
PASCO          CLEAR     80  48  32 NW14G22   29.82R
HERMISTON, OR  CLEAR     77  50  38 SW15G24   29.84R
$$

WAZ036>038-010400-
NORTHEAST WASHINGTON

CITY           SKY/WX    TMP DP  RH WIND       PRES   REMARKS
SPOKANE GEIGER PTCLDY    73  37  27 S5        29.88R
SPOKANE FELTS  CLEAR     74  40  29 CALM      29.87R
FAIRCHILD AFB  CLEAR     69  37  30 SW6       29.89R
COEURDALENE,ID MOCLDY    72  39  30 E9        29.85R
DEER PARK      CLEAR     71  35  26 SW8       29.87R
$$

WAZ029>033-010400-
SOUTHEAST WASHINGTON

CITY           SKY/WX    TMP DP  RH WIND       PRES   REMARKS
PULLMAN        PTCLDY    71  41  33 W7        29.93R
LEWISTON, ID   PTCLDY    77  41  27 W8        29.86R
WALLA WALLA    CLEAR     76  42  29 S6        29.86R
PENDLETON, OR  CLEAR     74  46  36 W15       29.88R
$$




USA.gov is the U.S. government's official web portal to all federal, state and local government web resources and services.